Weather History for KCCY - March, 2014

Change the Weather History Date:

Sunday, March 16, 2014

  Actual Average Record
Temperature  
Mean Temperature 20 °F -  
Max Temperature 26 °F 41 °F 84 °F (2012)
Min Temperature 14 °F 24 °F -5 °F (1951)
Degree Days  
Heating Degree Days 45    
Moisture  
Dew Point 10 °F    
Average Humidity 63    
Maximum Humidity 74    
Minimum Humidity 46    
Precipitation  
Precipitation 0.00 in - - ()
Sea Level Pressure  
Sea Level Pressure 30.29 in    
Wind  
Wind Speed 12 mph (ENE)    
Max Wind Speed 22 mph    
Max Gust Speed 25 mph    
Visibility 10 miles    
Events      
Averages and records for this station are not official NWS values.
T = Trace of Precipitation, MM = Missing Value Source: NWS Daily Summary

Daily Weather History Graph

Daily Weather History Graph

Search for Another Location

Airport or City:

Trip Planner

Search our weather history database for the weather conditions in past years. The results will help you decide how hot, cold, wet, or windy it might be!

Date:

Astronomy

Mar. 16, 2014 Rise Set
Actual Time 7:20 AM CDT 7:18 PM CDT
Civil Twilight 6:52 AM CDT 7:46 PM CDT
Nautical Twilight 6:19 AM CDT 8:19 PM CDT
Astronomical Twilight 5:45 AM CDT 8:53 PM CDT
Moon 7:37 PM CDT (3/16) 7:03 AM CDT (3/16)
Length of Visible Light 12h 53m
Length of Day
11h 57m
Full, 100% of the Moon is Illuminated
Mar 16
Full
Mar 16
Full
Mar 23
Last Quarter
Mar 30
New
Apr 7
First Quarter

Hourly Weather History & Observations

Time (CDT) Temp. Windchill Dew Point Humidity Pressure Visibility Wind Dir Wind Speed Gust Speed Precip Events Conditions
12:15 AM 26.6 °F 15.7 °F 15.8 °F 64% 30.30 in 10.0 mi NNE 12.7 mph 19.6 mph N/A   Clear
12:35 AM 24.8 °F 12.4 °F 15.8 °F 69% 30.29 in 10.0 mi NNE 15.0 mph - N/A   Clear
1:15 AM 24.8 °F 13.4 °F 15.8 °F 69% 30.29 in 10.0 mi NNE 12.7 mph - N/A   Scattered Clouds
1:35 AM 24.8 °F 12.4 °F 14.0 °F 64% 30.30 in 10.0 mi NNE 15.0 mph - N/A   Clear
1:55 AM 24.8 °F 12.4 °F 14.0 °F 64% 30.31 in 10.0 mi NNE 15.0 mph - N/A   Clear
2:15 AM 23.0 °F 10.6 °F 14.0 °F 68% 30.32 in 10.0 mi NNE 13.8 mph - N/A   Clear
2:35 AM 23.0 °F 9.6 °F 14.0 °F 68% 30.33 in 10.0 mi NNE 16.1 mph - N/A   Clear
2:55 AM 23.0 °F 10.1 °F 12.2 °F 63% 30.34 in 10.0 mi NE 15.0 mph - N/A   Clear
3:15 AM 23.0 °F 8.3 °F 10.4 °F 59% 30.33 in 10.0 mi NE 19.6 mph - N/A   Clear
3:35 AM 21.2 °F 5.2 °F 5.0 °F 50% 30.33 in 10.0 mi NE 21.9 mph - N/A   Clear
3:55 AM 21.2 °F 6.8 °F 5.0 °F 50% 30.33 in 10.0 mi NNE 17.3 mph 25.3 mph N/A   Clear
4:15 AM 19.4 °F 6.0 °F 6.8 °F 58% 30.34 in 10.0 mi NE 13.8 mph - N/A   Clear
4:35 AM 19.4 °F 6.0 °F 8.6 °F 63% 30.34 in 10.0 mi NNE 13.8 mph - N/A   Clear
4:55 AM 19.4 °F 5.5 °F 6.8 °F 58% 30.34 in 10.0 mi NNE 15.0 mph - N/A   Clear
5:15 AM 17.6 °F 2.7 °F 6.8 °F 63% 30.35 in 10.0 mi NNE 16.1 mph - N/A   Clear
5:35 AM 17.6 °F 3.2 °F 6.8 °F 63% 30.35 in 10.0 mi NNE 15.0 mph - N/A   Clear
5:55 AM 17.6 °F 3.7 °F 6.8 °F 63% 30.35 in 10.0 mi NNE 13.8 mph - N/A   Clear
6:15 AM 15.8 °F 0.9 °F 6.8 °F 68% 30.35 in 10.0 mi NNE 15.0 mph - N/A   Clear
6:35 AM 15.8 °F 2.1 °F 6.8 °F 68% 30.35 in 10.0 mi NE 12.7 mph - N/A   Clear
7:15 AM 15.8 °F 3.4 °F 6.8 °F 68% 30.36 in 10.0 mi NE 10.4 mph - N/A   Clear
7:35 AM 15.8 °F 1.4 °F 6.8 °F 68% 30.36 in 10.0 mi NE 13.8 mph - N/A   Clear
7:55 AM 14.0 °F 0.5 °F 6.8 °F 73% 30.36 in 10.0 mi NE 11.5 mph - N/A   Clear
8:15 AM 15.8 °F 2.7 °F 6.8 °F 68% 30.36 in 10.0 mi NE 11.5 mph - N/A   Clear
8:35 AM 15.8 °F 1.4 °F 6.8 °F 68% 30.37 in 10.0 mi NE 13.8 mph - N/A   Clear
8:55 AM 15.8 °F 1.4 °F 6.8 °F 68% 30.38 in 10.0 mi NE 13.8 mph - N/A   Clear
9:15 AM 15.8 °F 1.4 °F 8.6 °F 73% 30.39 in 10.0 mi NE 13.8 mph - N/A   Clear
9:35 AM 17.6 °F 3.7 °F 8.6 °F 68% 30.38 in 10.0 mi NE 13.8 mph - N/A   Clear
9:55 AM 17.6 °F 3.2 °F 10.4 °F 73% 30.39 in 10.0 mi ENE 15.0 mph - N/A   Clear
10:15 AM 19.4 °F 5.5 °F 12.2 °F 74% 30.39 in 10.0 mi NE 15.0 mph - N/A   Clear
10:35 AM 19.4 °F 6.6 °F 12.2 °F 74% 30.40 in 10.0 mi NE 12.7 mph - N/A   Clear
10:55 AM 21.2 °F 9.5 °F 12.2 °F 68% 30.40 in 10.0 mi ENE 11.5 mph - N/A   Clear
11:15 AM 21.2 °F 9.5 °F 12.2 °F 68% 30.39 in 10.0 mi ENE 11.5 mph - N/A   Clear
11:35 AM 21.2 °F 9.5 °F 12.2 °F 68% 30.39 in 10.0 mi NE 11.5 mph - N/A   Clear
11:55 AM 21.2 °F 10.9 °F 12.2 °F 68% 30.38 in 10.0 mi NE 9.2 mph - N/A   Clear
12:15 PM 23.0 °F 12.4 °F 12.2 °F 63% 30.39 in 10.0 mi ENE 10.4 mph - N/A   Clear
12:35 PM 23.0 °F 13.1 °F 12.2 °F 63% 30.38 in 10.0 mi ENE 9.2 mph - N/A   Clear
12:55 PM 23.0 °F 12.4 °F 14.0 °F 68% 30.38 in 10.0 mi NE 10.4 mph - N/A   Clear
1:15 PM 23.0 °F 12.4 °F 14.0 °F 68% 30.37 in 10.0 mi NE 10.4 mph - N/A   Clear
1:55 PM 23.0 °F 12.4 °F 12.2 °F 63% 30.34 in 10.0 mi East 10.4 mph - N/A   Clear
2:15 PM 23.0 °F 13.1 °F 12.2 °F 63% 30.32 in 10.0 mi East 9.2 mph 16.1 mph N/A   Clear
2:35 PM 24.8 °F 14.6 °F 12.2 °F 59% 30.30 in 10.0 mi East 10.4 mph - N/A   Clear
2:55 PM 24.8 °F 16.1 °F 12.2 °F 59% 30.29 in 10.0 mi ESE 8.1 mph - N/A   Clear
3:15 PM 24.8 °F 15.3 °F 10.4 °F 54% 30.29 in 10.0 mi ESE 9.2 mph - N/A   Clear
3:35 PM 24.8 °F 16.1 °F 8.6 °F 50% 30.28 in 10.0 mi East 8.1 mph - N/A   Clear
3:55 PM 24.8 °F 16.1 °F 8.6 °F 50% 30.27 in 10.0 mi ESE 8.1 mph - N/A   Clear
4:15 PM 24.8 °F 17.9 °F 10.4 °F 54% 30.27 in 10.0 mi Variable 5.8 mph 13.8 mph N/A   Clear
4:35 PM 24.8 °F 17.9 °F 10.4 °F 54% 30.26 in 10.0 mi SE 5.8 mph - N/A   Clear
4:55 PM 24.8 °F 17.9 °F 8.6 °F 50% 30.25 in 10.0 mi ESE 5.8 mph - N/A   Clear
5:20 PM 24.8 °F 19.1 °F 8.6 °F 50% 30.25 in 10.0 mi ESE 4.6 mph - N/A   Clear
5:35 PM 24.8 °F 20.5 °F 8.6 °F 50% 30.24 in 10.0 mi SE 3.5 mph - N/A   Clear
5:55 PM 24.8 °F 19.1 °F 6.8 °F 46% 30.24 in 10.0 mi Variable 4.6 mph - N/A   Clear
6:15 PM 24.8 °F - 8.6 °F 50% 30.24 in 10.0 mi Calm Calm - N/A   Clear
6:35 PM 24.8 °F 19.1 °F 8.6 °F 50% 30.23 in 10.0 mi East 4.6 mph - N/A   Clear
6:55 PM 24.8 °F 19.1 °F 8.6 °F 50% 30.23 in - East 4.6 mph - N/A   Clear
7:15 PM 24.8 °F 19.1 °F 8.6 °F 50% 30.22 in 10.0 mi ESE 4.6 mph - N/A   Clear
7:35 PM 23.0 °F 17.0 °F 8.6 °F 54% 30.21 in 10.0 mi SE 4.6 mph - N/A   Clear
7:55 PM 23.0 °F 15.8 °F 10.4 °F 59% 30.19 in 10.0 mi SE 5.8 mph - N/A   Clear
8:15 PM 23.0 °F 17.0 °F 10.4 °F 59% 30.19 in 10.0 mi SSE 4.6 mph - N/A   Clear
8:35 PM 23.0 °F 18.4 °F 12.2 °F 63% 30.18 in 10.0 mi SE 3.5 mph - N/A   Clear
8:55 PM 23.0 °F - 10.4 °F 59% 30.17 in 10.0 mi Calm Calm - N/A   Clear
9:15 PM 23.0 °F - 10.4 °F 59% 30.19 in 10.0 mi Calm Calm - N/A   Clear
9:35 PM 23.0 °F 18.4 °F 12.2 °F 63% 30.17 in 10.0 mi SSE 3.5 mph - N/A   Clear
9:55 PM 21.2 °F 11.7 °F 12.2 °F 68% 30.16 in 10.0 mi South 8.1 mph - N/A   Mostly Cloudy
10:15 PM 21.2 °F 11.7 °F 12.2 °F 68% 30.14 in 10.0 mi South 8.1 mph - N/A   Mostly Cloudy
10:35 PM 21.2 °F 12.6 °F 12.2 °F 68% 30.13 in 10.0 mi South 6.9 mph - N/A   Mostly Cloudy
10:55 PM 21.2 °F 13.6 °F 12.2 °F 68% 30.12 in 10.0 mi SSE 5.8 mph - N/A   Partly Cloudy
11:15 PM 19.4 °F 9.5 °F 12.2 °F 74% 30.11 in 10.0 mi South 8.1 mph - N/A   Mostly Cloudy
11:35 PM 19.4 °F 7.9 °F 12.2 °F 74% 30.09 in 10.0 mi South 10.4 mph - N/A   Overcast
11:55 PM 19.4 °F 7.9 °F 12.2 °F 74% 30.08 in 10.0 mi South 10.4 mph - N/A   Scattered Clouds